When you browse on this site, cookies collect data to enhance your experience and personalize the content and advertising you see.
Visit our Privacy Policy to learn more. By continuing to use the site, you agree to this use of cookies and data.
  • Em Portugal
  • Lista de países
  • Para 7 dias
  • Temperatura da água
  • Mapas de satélite
  • Mapa do tempo
  • Widgets de tempo
  • user-avatar
    Iniciar Sessão

    Previsão horária em Krest

    Hoje, 26 Abril, Sexta-feira

    Tempo Temperatura Precipitação Vento Pressão Humidade
    00:00 +12°C° 0 mm 0 m/s 745 mmHg 52%
    01:00 +12°C° 0 mm 0 m/s 745 mmHg 53%
    02:00 +12°C° 0 mm 1 m/s 745 mmHg 54%
    03:00 +12°C° 0 mm 1 m/s 745 mmHg 55%
    04:00 +12°C° 0 mm 1 m/s 745 mmHg 56%
    05:00 +12°C° 0 mm 1 m/s 745 mmHg 57%
    06:00 +14°C° 0 mm 1 m/s 745 mmHg 54%
    07:00 +16°C° 0 mm 1 m/s 745 mmHg 50%
    08:00 +19°C° 0 mm 1 m/s 745 mmHg 47%
    09:00 +19°C° 0 mm 2 m/s 745 mmHg 41%
    10:00 +21°C° 0 mm 2 m/s 744 mmHg 36%
    11:00 +24°C° 0 mm 2 m/s 744 mmHg 31%
    12:00 +24°C° 0 mm 2 m/s 744 mmHg 30%
    13:00 +24°C° 0 mm 2 m/s 744 mmHg 29%
    14:00 +24°C° 0 mm 2 m/s 744 mmHg 29%
    15:00 +24°C° 0 mm 2 m/s 743 mmHg 31%
    16:00 +23°C° 0 mm 2 m/s 743 mmHg 33%
    17:00 +23°C° 0 mm 2 m/s 742 mmHg 34%
    18:00 +20°C° 0 mm 2 m/s 742 mmHg 41%
    19:00 +17°C° 0 mm 2 m/s 742 mmHg 47%
    20:00 +15°C° 0 mm 1 m/s 742 mmHg 53%
    21:00 +15°C° 0 mm 1 m/s 742 mmHg 56%
    22:00 +14°C° 0 mm 1 m/s 741 mmHg 58%
    23:00 +13°C° 0 mm 2 m/s 741 mmHg 61%

    Amanhã, 27 Abril, Sábado

    Tempo Temperatura Precipitação Vento Pressão Humidade
    00:00 +13°C° 0 mm 2 m/s 741 mmHg 63%
    01:00 +12°C° 0 mm 2 m/s 741 mmHg 66%
    02:00 +12°C° 0 mm 2 m/s 740 mmHg 68%
    03:00 +12°C° 0 mm 2 m/s 740 mmHg 69%
    04:00 +10°C° 0 mm 2 m/s 740 mmHg 71%
    05:00 +10°C° 0 mm 2 m/s 739 mmHg 72%
    06:00 +13°C° 0 mm 2 m/s 739 mmHg 66%
    07:00 +14°C° 0 mm 2 m/s 739 mmHg 60%
    08:00 +16°C° 0 mm 2 m/s 739 mmHg 54%
    09:00 +18°C° 0 mm 2 m/s 738 mmHg 49%
    10:00 +20°C° 0 mm 2 m/s 738 mmHg 43%
    11:00 +23°C° 0 mm 2 m/s 738 mmHg 38%
    12:00 +23°C° 0 mm 2 m/s 738 mmHg 37%
    13:00 +24°C° 0 mm 2 m/s 737 mmHg 36%
    14:00 +24°C° 0 mm 2 m/s 737 mmHg 35%
    15:00 +24°C° 0 mm 1 m/s 737 mmHg 38%
    16:00 +23°C° 0 mm 1 m/s 736 mmHg 42%
    17:00 +22°C° 0 mm 1 m/s 736 mmHg 45%
    18:00 +19°C° 0 mm 2 m/s 736 mmHg 52%
    19:00 +18°C° 0 mm 2 m/s 736 mmHg 58%
    20:00 +16°C° 0 mm 2 m/s 736 mmHg 65%
    21:00 +15°C° 0.5 mm 2 m/s 736 mmHg 72%
    22:00 +14°C° 0.5 mm 2 m/s 736 mmHg 79%
    23:00 +13°C° 0.5 mm 2 m/s 736 mmHg 86%

    Depois de amanhã, 28 Abril, Domingo

    Tempo Temperatura Precipitação Vento Pressão Humidade
    00:00 +12°C° 0 mm 2 m/s 737 mmHg 86%
    01:00 +11°C° 0 mm 3 m/s 737 mmHg 87%
    02:00 +10°C° 0 mm 3 m/s 738 mmHg 88%
    03:00 +10°C° 0 mm 4 m/s 738 mmHg 87%
    04:00 +8°C° 0 mm 4 m/s 739 mmHg 87%
    05:00 +7°C° 0 mm 4 m/s 739 mmHg 87%
    06:00 +8°C° 0 mm 4 m/s 740 mmHg 82%
    07:00 +8°C° 0 mm 4 m/s 741 mmHg 77%
    08:00 +8°C° 0 mm 4 m/s 742 mmHg 72%
    09:00 +8°C° 0 mm 4 m/s 742 mmHg 67%
    10:00 +8°C° 0 mm 4 m/s 743 mmHg 62%
    11:00 +8°C° 0 mm 4 m/s 743 mmHg 57%
    12:00 +10°C° 0 mm 4 m/s 743 mmHg 49%
    13:00 +11°C° 0 mm 4 m/s 744 mmHg 41%
    14:00 +12°C° 0 mm 4 m/s 744 mmHg 33%
    15:00 +12°C° 0 mm 4 m/s 744 mmHg 33%
    16:00 +11°C° 0 mm 4 m/s 744 mmHg 32%
    17:00 +11°C° 0 mm 4 m/s 744 mmHg 32%
    18:00 +8°C° 0 mm 4 m/s 745 mmHg 37%
    19:00 +7°C° 0 mm 3 m/s 745 mmHg 41%
    20:00 +6°C° 0 mm 2 m/s 746 mmHg 46%
    21:00 +5°C° 0 mm 2 m/s 746 mmHg 49%
    22:00 +4°C° 0 mm 2 m/s 747 mmHg 52%
    23:00 +3°C° 0 mm 2 m/s 747 mmHg 56%

    29 Abril, Segunda-feira

    Tempo Temperatura Precipitação Vento Pressão Humidade
    00:00 +2°C° 0 mm 2 m/s 747 mmHg 59%
    01:00 +2°C° 0 mm 2 m/s 747 mmHg 62%
    02:00 +1°C° 0 mm 2 m/s 748 mmHg 65%
    03:00 +1°C° 0 mm 2 m/s 748 mmHg 65%
    04:00 +1°C° 0 mm 2 m/s 748 mmHg 65%
    05:00 -1°C° 0 mm 2 m/s 748 mmHg 65%
    06:00 +2°C° 0 mm 2 m/s 748 mmHg 57%
    07:00 +3°C° 0 mm 3 m/s 749 mmHg 49%
    08:00 +4°C° 0 mm 3 m/s 749 mmHg 41%
    09:00 +7°C° 0 mm 3 m/s 749 mmHg 37%
    10:00 +8°C° 0 mm 3 m/s 749 mmHg 34%
    11:00 +9°C° 0 mm 2 m/s 749 mmHg 31%
    12:00 +10°C° 0 mm 2 m/s 748 mmHg 29%
    13:00 +12°C° 0 mm 2 m/s 748 mmHg 27%
    14:00 +13°C° 0 mm 2 m/s 747 mmHg 25%
    15:00 +12°C° 0 mm 2 m/s 747 mmHg 26%
    16:00 +12°C° 0 mm 2 m/s 747 mmHg 27%
    17:00 +12°C° 0 mm 2 m/s 746 mmHg 28%
    18:00 +10°C° 0 mm 1 m/s 746 mmHg 34%
    19:00 +8°C° 0 mm 1 m/s 746 mmHg 40%
    20:00 +6°C° 0 mm 1 m/s 746 mmHg 45%
    21:00 +6°C° 0 mm 1 m/s 746 mmHg 48%
    22:00 +5°C° 0 mm 1 m/s 746 mmHg 50%
    23:00 +4°C° 0 mm 1 m/s 746 mmHg 53%

    30 Abril, Terça-feira

    Tempo Temperatura Precipitação Vento Pressão Humidade
    00:00 +4°C° 0 mm 1 m/s 746 mmHg 54%
    01:00 +3°C° 0 mm 1 m/s 746 mmHg 56%
    02:00 +3°C° 0 mm 1 m/s 745 mmHg 58%
    03:00 +3°C° 0 mm 1 m/s 745 mmHg 58%
    04:00 +2°C° 0 mm 1 m/s 745 mmHg 58%
    05:00 +2°C° 0 mm 1 m/s 745 mmHg 59%
    06:00 +5°C° 0 mm 1 m/s 745 mmHg 52%
    07:00 +6°C° 0 mm 0 m/s 745 mmHg 46%
    08:00 +9°C° 0 mm 0 m/s 745 mmHg 40%
    09:00 +10°C° 0 mm 0 m/s 744 mmHg 36%
    10:00 +12°C° 0 mm 0 m/s 744 mmHg 33%
    11:00 +14°C° 0 mm 0 m/s 744 mmHg 30%
    12:00 +15°C° 0 mm 1 m/s 744 mmHg 29%
    13:00 +14°C° 0 mm 1 m/s 743 mmHg 29%
    14:00 +14°C° 0 mm 1 m/s 743 mmHg 28%
    15:00 +14°C° 0 mm 1 m/s 743 mmHg 30%
    16:00 +13°C° 0 mm 1 m/s 742 mmHg 31%
    17:00 +13°C° 0 mm 2 m/s 742 mmHg 33%
    18:00 +11°C° 0 mm 1 m/s 742 mmHg 39%
    19:00 +10°C° 0 mm 1 m/s 742 mmHg 46%
    20:00 +8°C° 0 mm 1 m/s 742 mmHg 52%
    21:00 +7°C° 0 mm 1 m/s 741 mmHg 55%
    22:00 +6°C° 0 mm 1 m/s 741 mmHg 57%
    23:00 +6°C° 0 mm 1 m/s 741 mmHg 59%

    1 Maio, Quarta-feira

    Tempo Temperatura Precipitação Vento Pressão Humidade
    00:00 +5°C° 0 mm 1 m/s 741 mmHg 59%
    01:00 +5°C° 0 mm 1 m/s 741 mmHg 59%
    02:00 +5°C° 0 mm 1 m/s 741 mmHg 59%
    03:00 +5°C° 0 mm 1 m/s 741 mmHg 60%
    04:00 +5°C° 0 mm 1 m/s 740 mmHg 60%
    05:00 +5°C° 0 mm 1 m/s 740 mmHg 60%
    06:00 +7°C° 0 mm 1 m/s 740 mmHg 55%
    07:00 +9°C° 0 mm 1 m/s 740 mmHg 50%
    08:00 +10°C° 0 mm 1 m/s 740 mmHg 45%
    09:00 +12°C° 0 mm 1 m/s 739 mmHg 41%
    10:00 +13°C° 0 mm 2 m/s 739 mmHg 37%
    11:00 +14°C° 0 mm 2 m/s 738 mmHg 32%
    12:00 +14°C° 0 mm 2 m/s 738 mmHg 33%
    13:00 +14°C° 0 mm 2 m/s 737 mmHg 33%
    14:00 +14°C° 0 mm 2 m/s 737 mmHg 33%
    15:00 +14°C° 0 mm 2 m/s 736 mmHg 34%
    16:00 +14°C° 0 mm 2 m/s 736 mmHg 36%
    17:00 +13°C° 0 mm 2 m/s 735 mmHg 37%
    18:00 +12°C° 0 mm 2 m/s 735 mmHg 43%
    19:00 +9°C° 0 mm 2 m/s 734 mmHg 49%
    20:00 +8°C° 0 mm 1 m/s 734 mmHg 55%
    21:00 +7°C° 0 mm 2 m/s 734 mmHg 56%
    22:00 +8°C° 0 mm 2 m/s 733 mmHg 56%
    23:00 +8°C° 0 mm 3 m/s 733 mmHg 57%
    Mostrar mais